Location: Bégole
(43.1574°N, 0.3291°E)
Time: 20:29:38
(UTC+00:00)

NOAA 16 DEB - Visible Passes

Search period start: 27 February 2024 00:00
Search period end: 08 March 2024 00:00
Orbit: 830 x 879 km, 98.7° (Epoch: 26 February)

Date Brightness Start Highest point End Pass type
(mag) Time Alt. Az. Time Alt. Az. Time Alt. Az.
27 Feb ? 19:39:44 10° S 19:45:05 52° W 19:50:24 10° NNW visible
28 Feb ? 19:28:57 10° S 19:34:23 64° WSW 19:39:49 10° NNW visible
29 Feb ? 19:18:14 10° S 19:23:43 79° WSW 19:29:10 10° NNW visible
01 Mar ? 19:07:33 10° SSE 19:13:02 85° ENE 19:18:30 10° NNW visible
01 Mar ? 20:52:08 10° WSW 20:54:29 13° W 20:56:50 10° WNW visible
02 Mar ? 18:56:57 10° SSE 19:02:22 69° ENE 19:07:46 10° N visible
02 Mar ? 20:40:22 10° SW 20:43:39 16° W 20:46:57 10° NW visible
03 Mar ? 18:46:24 10° SSE 18:51:43 56° ENE 18:57:01 10° N visible
03 Mar ? 20:28:55 10° SW 20:32:51 20° W 20:36:47 10° NW visible
04 Mar ? 18:35:54 10° SE 18:41:04 46° ENE 18:46:13 10° N visible
04 Mar ? 20:17:39 10° SSW 20:22:03 25° W 20:26:27 10° NW visible
05 Mar ? 18:25:28 10° SE 18:30:26 37° ENE 18:35:23 10° N visible
05 Mar ? 20:06:30 10° SSW 20:11:16 30° W 20:16:00 10° NW visible
06 Mar ? 18:15:07 10° SE 18:19:48 31° ENE 18:24:30 10° N visible
06 Mar ? 19:55:27 10° SSW 20:00:28 37° W 20:05:30 10° NNW visible
07 Mar ? 19:44:29 10° S 19:49:42 46° W 19:54:55 10° NNW visible
